Location: Berlin
(52.5170°N, 13.4000°E)
Time: 21:50:11
(UTC+02:00)

ISS - Visible Passes

Search period start: 22 May 2018 00:00
Search period end: 01 June 2018 00:00
Orbit: 402 x 407 km, 51.6° (Epoch: 23 May)

Date Brightness Start Highest point End Pass type
(mag) Time Alt. Az. Time Alt. Az. Time Alt. Az.
22 May -4.0 01:30:09 10° W 01:33:26 75° S 01:36:42 10° E visible
22 May -3.2 03:06:42 10° W 03:09:42 34° SSW 03:12:42 10° SE visible
22 May -3.6 23:01:47 10° SW 23:04:56 46° SSE 23:08:06 10° E visible
23 May -4.0 00:38:01 10° W 00:41:17 78° S 00:44:34 10° E visible
23 May -3.7 02:14:29 10° W 02:17:39 47° SSW 02:20:49 10° SE visible
23 May -2.1 03:51:43 10° WSW 03:53:35 14° SW 03:55:26 10° S visible
23 May -3.2 22:09:53 10° SW 22:12:52 33° SSE 22:15:53 10° E visible
23 May -4.0 23:45:52 10° WSW 23:49:08 74° S 23:52:25 10° E visible
24 May -3.9 01:22:18 10° W 01:25:32 61° SSW 01:27:56 17° ESE visible
24 May -2.1 02:59:05 10° W 03:00:20 17° WSW 03:00:20 17° WSW visible
24 May -3.9 22:53:44 10° WSW 22:56:59 64° SSE 23:00:14 10° E visible
25 May -4.0 00:30:08 10° W 00:33:24 72° S 00:35:45 17° ESE visible
25 May -2.4 02:06:42 10° W 02:08:20 22° WSW 02:08:20 22° WSW visible
25 May -3.6 22:01:39 10° WSW 22:04:51 51° SSE 22:08:03 10° E visible
25 May -4.0 23:37:57 10° W 23:41:14 78° S 23:44:30 10° E visible
26 May -3.4 01:14:26 10° W 01:17:17 41° SW 01:17:17 41° SW visible
26 May -3.9 22:45:45 10° W 22:49:02 77° S 22:52:18 10° E visible
27 May -3.8 00:22:12 10° W 00:25:26 56° SSW 00:26:28 36° SE visible
27 May -3.8 21:53:34 10° WSW 21:56:50 69° S 22:00:06 10° E visible
27 May -3.9 23:30:00 10° W 23:33:15 69° S 23:35:45 16° ESE visible
28 May -2.3 01:06:37 10° W 01:08:22 22° WSW 01:08:22 22° WSW visible
28 May -3.9 22:37:46 10° W 22:41:03 76° S 22:44:19 10° E visible
29 May -3.3 00:14:16 10° W 00:17:21 38° SSW 00:17:42 36° S visible
29 May -3.6 23:22:00 10° W 23:25:11 51° SSW 23:27:05 21° SE visible
30 May -1.5 00:59:03 10° WSW 00:59:43 13° WSW 00:59:43 13° WSW visible
30 May -3.8 22:29:44 10° W 22:33:00 64° SSW 22:36:14 10° ESE visible
31 May -2.5 00:06:26 10° W 00:09:06 24° SSW 00:09:06 24° SSW visible
31 May -3.0 23:14:00 10° W 23:17:01 33° SSW 23:18:32 21° SSE visible
